Location: PACMO
(41.3967°N, 90.3760°W)
Time: 19:39:58
(UTC-05:00)

Amateur Radio Satellites - All Passes

Search period start: 25 July 2016 19:09
Search period end: 26 July 2016 19:09
Location: PACMO, 41.3967°N, 90.3760°W

Satellite Date Start Highest point End Downlink Frequencies (MHz)
Time Altitude Azimuth
PCSat 25 Jul 19:12:35 19:16:58 25° 108° (ESE) 19:21:21 145.827
SEEDS 25 Jul 19:24:11 19:26:58 17° 66° (ENE) 19:29:45 437.485
GOMX 1 25 Jul 19:24:53 19:28:36 31° 264° (W) 19:32:26 467.674
CUTE-I 25 Jul 19:25:21 19:30:02 30° 264° (W) 19:34:46 437.470
DOVE 4 25 Jul 19:26:07 19:30:21 73° 260° (W) 19:34:49 437.250
LilacSat-2 25 Jul 19:28:46 19:31:31 19° 267° (W) 19:34:18 437.200
YUBILEINY 25 Jul 19:32:40 19:37:54 17° 59° (ENE) 19:43:04 435.215
CUBEBUG 2 25 Jul 19:35:22 19:37:36 13° 62° (ENE) 19:39:50 437.445
COMPASS 1 25 Jul 19:39:18 19:42:05 18° 66° (ENE) 19:44:53 437.405
CUBESAT XI-V 25 Jul 19:42:20 19:45:19 17° 296° (WNW) 19:48:18 437.345
PHONESAT 2.4 25 Jul 19:43:34 19:46:39 68° 173° (S) 19:49:43 2401.200-2431.200
NOAA 18 25 Jul 19:47:19 19:51:19 20° 267° (W) 19:55:21 137.9125
CINEMA 3 25 Jul 19:50:23 19:54:46 58° 74° (ENE) 19:59:23 145.822/145.860
NOAA 15 25 Jul 19:54:30 19:56:35 12° 271° (W) 19:58:42 137.62
BEESAT 3 25 Jul 19:59:19 20:03:04 43° 307° (NW) 20:06:52 437.485
BEESAT 2 25 Jul 20:01:35 20:05:32 78° 303° (WNW) 20:09:31 435.950
CANX-2 25 Jul 20:01:49 20:06:05 72° 75° (ENE) 20:10:21 2200.000
Oscar 11 25 Jul 20:07:21 20:09:06 12° 62° (ENE) 20:10:51 145.826/435.025
AAUSAT CUBESAT 2 25 Jul 20:08:29 20:12:03 28° 70° (ENE) 20:15:38 437.432
CUTE 1.7 + AOD 2 25 Jul 20:15:35 20:19:52 89° 88° (E) 20:24:10 437.475
HO-68 25 Jul 20:16:18 20:23:30 84° 255° (WSW) 20:30:45 435.675
STRAND 1 25 Jul 20:27:20 20:32:29 85° 105° (ESE) 20:37:36 437.568
O/OREOS (USA 219) 25 Jul 20:28:02 20:31:22 21° 101° (ESE) 20:34:43 437.305
Cosmos 2504 25 Jul 20:30:08 20:31:11 10° 53° (NE) 20:32:13 435.465 / 435.565
AUBIESAT-1 25 Jul 20:43:10 20:44:51 12° 56° (NE) 20:46:35 437.475
DELFI C3 25 Jul 20:47:39 20:49:29 13° 64° (ENE) 20:51:20 145.870
UWE-3 25 Jul 20:50:42 20:55:07 52° 73° (ENE) 20:59:39 435.000/436.395/437.385
PCSat 25 Jul 20:54:53 21:00:04 46° 305° (NW) 21:05:19 145.827
Cosmos 2491 25 Jul 20:55:11 21:01:54 26° 81° (E) 21:08:36 435.465 / 435.565
ZACube-1 25 Jul 20:55:28 20:59:39 38° 71° (ENE) 21:03:55 437.345
FUNcube-1 25 Jul 20:55:35 20:59:42 36° 70° (ENE) 21:03:54 145.935
SEEDS 25 Jul 20:58:19 21:02:20 42° 262° (W) 21:06:22 437.485
CUBEBUG 2 25 Jul 21:09:03 21:13:35 69° 259° (W) 21:18:17 437.445
COMPASS 1 25 Jul 21:13:23 21:17:20 40° 262° (W) 21:21:18 437.405
PHONESAT 2.4 25 Jul 21:20:02 21:23:06 64° 189° (S) 21:26:09 2401.200-2431.200
ISS 25 Jul 21:21:49 21:24:06 18° 132° (SE) 21:26:22 145.825
YUBILEINY 25 Jul 21:27:23 21:36:17 79° 81° (E) 21:45:06 435.215
CINEMA 3 25 Jul 21:30:05 21:32:21 14° 271° (W) 21:34:40 145.822/145.860
Oscar 11 25 Jul 21:40:21 21:44:40 67° 259° (W) 21:49:01 145.826/435.025
BEESAT 2 25 Jul 21:43:07 21:44:03 11° 322° (NW) 21:45:00 435.950
AAUSAT CUBESAT 2 25 Jul 21:44:09 21:47:30 23° 265° (W) 21:50:52 437.432
PRISM 25 Jul 21:45:00 21:49:06 80° 103° (ESE) 21:53:12 437.425
M-CUBED/EXP-1 PRIME 25 Jul 21:47:25 21:51:07 78° 68° (ENE) 21:55:09 437.505
AIST 2 25 Jul 21:47:48 21:51:52 66° 119° (ESE) 21:55:59 435.215
AO-85 25 Jul 22:04:30 22:07:20 16° 39° (NE) 22:10:02 145.980
O/OREOS (USA 219) 25 Jul 22:06:23 22:10:30 36° 298° (WNW) 22:14:40 437.305
TIGRISAT 25 Jul 22:07:45 22:09:11 11° 88° (E) 22:10:37 435.000
HO-68 25 Jul 22:08:41 22:12:12 14° 272° (W) 22:15:43 435.675
STRAND 1 25 Jul 22:08:44 22:10:55 13° 301° (WNW) 22:13:07 437.568
AUBIESAT-1 25 Jul 22:15:02 22:18:43 59° 255° (WSW) 22:22:45 437.475
Cosmos 2504 25 Jul 22:18:41 22:26:48 58° 77° (ENE) 22:34:16 435.465 / 435.565
DELFI C3 25 Jul 22:20:01 22:23:55 51° 260° (W) 22:27:49 145.870
UNISAT 6 25 Jul 22:22:05 22:25:14 18° 92° (E) 22:28:19 437.425
HUMSAT D 25 Jul 22:24:28 22:28:46 79° 76° (ENE) 22:33:06 437.325/437.525
UWE-3 25 Jul 22:29:10 22:31:54 16° 270° (W) 22:34:38 435.000/436.395/437.385
FUNcube-1 25 Jul 22:32:32 22:36:02 22° 267° (W) 22:39:34 145.935
ZACube-1 25 Jul 22:32:41 22:36:03 21° 267° (W) 22:39:30 437.345
ESTCUBE 1 25 Jul 22:36:07 22:39:21 20° 65° (ENE) 22:42:34 437.505/2401.250
Cosmos 2491 25 Jul 22:49:17 22:57:56 67° 281° (W) 23:06:38 435.465 / 435.565
PHONESAT 2.4 25 Jul 22:56:50 22:59:19 23° 205° (SSW) 23:01:49 2401.200-2431.200
ISS 25 Jul 22:57:04 23:00:15 52° 328° (NNW) 23:03:27 145.825
ANTELSAT 25 Jul 22:59:40 23:04:07 43° 98° (E) 23:08:27 437.575/2403.000
VELOX 1 25 Jul 22:59:43 23:02:55 20° 65° (ENE) 23:06:07 145.980
CUBEBUG 1 25 Jul 23:04:50 23:08:20 25° 68° (ENE) 23:11:51 437.445
SPROUT 25 Jul 23:09:03 23:10:23 11° 62° (ENE) 23:11:44 437.525
YUBILEINY 25 Jul 23:25:51 23:32:01 22° 281° (W) 23:38:10 435.215
AIST 2 25 Jul 23:28:16 23:30:48 16° 318° (NW) 23:33:19 435.215
TIGRISAT 25 Jul 23:41:43 23:46:23 71° 285° (WNW) 23:50:54 435.000
AISAT 25 Jul 23:43:01 23:47:19 60° 74° (ENE) 23:51:40 437.250
AO-85 25 Jul 23:43:59 23:48:21 69° 241° (WSW) 23:52:21 145.980
DX 1 25 Jul 23:48:31 23:52:40 48° 72° (ENE) 23:56:50 434.975-435.025
NANOSAT C BR1 25 Jul 23:52:51 23:56:19 23° 95° (E) 23:59:44 145.865
UNISAT 6 25 Jul 23:57:44 00:02:11 45° 288° (WNW) 00:06:31 437.425
DUCHIFAT 1 25 Jul 23:57:52 00:01:24 25° 95° (E) 00:04:54 145.980
UKube-1 26 Jul 00:05:06 00:09:19 58° 73° (ENE) 00:13:34 .
50 SAT 26 Jul 00:08:20 00:11:59 64° 259° (W) 00:15:38 437.505
TISAT 1 26 Jul 00:09:46 00:11:33 12° 62° (ENE) 00:13:20 437.305
ESTCUBE 1 26 Jul 00:11:37 00:15:52 41° 262° (W) 00:20:07 437.505/2401.250
Cosmos 2504 26 Jul 00:12:57 00:19:32 28° 278° (W) 00:25:45 435.465 / 435.565
QB50P1 26 Jul 00:13:52 00:17:58 42° 99° (E) 00:22:00 145.935-145.965
BUGSAT 1 26 Jul 00:19:20 00:22:24 19° 93° (E) 00:25:27 437.445
POPSAT HIP 1 26 Jul 00:20:06 00:24:17 49° 100° (E) 00:28:26 437.405
AIST 1 26 Jul 00:32:08 00:36:07 35° 77° (ENE) 00:40:07
VELOX 1 26 Jul 00:35:02 00:39:07 38° 262° (W) 00:43:13 145.980
ISS 26 Jul 00:35:05 00:37:15 16° 348° (NNW) 00:39:25 145.825
ANTELSAT 26 Jul 00:37:09 00:40:29 20° 295° (WNW) 00:43:46 437.575/2403.000
QB50P2 26 Jul 00:40:34 00:44:52 89° 310° (NW) 00:49:10 145.880/145.840
CUBEBUG 1 26 Jul 00:40:45 00:44:30 29° 264° (W) 00:48:17 437.445
SPROUT 26 Jul 00:41:29 00:45:44 71° 259° (W) 00:50:01 437.525
POLYITAN 1 26 Jul 00:43:12 00:47:32 88° 284° (WNW) 00:51:49 437.675
JAS-2 26 Jul 00:44:16 00:48:47 28° 96° (E) 00:53:34 435.910
Cosmos 2491 26 Jul 00:52:53 00:56:41 13° 303° (WNW) 01:00:30 435.465 / 435.565
SWISSCUBE 26 Jul 01:02:12 01:03:56 12° 60° (ENE) 01:05:42 437.505
BEESAT 26 Jul 01:22:15 01:25:19 17° 63° (ENE) 01:28:22 436.000
AISAT 26 Jul 01:22:25 01:24:11 12° 270° (W) 01:25:58 437.250
Oscar 19 26 Jul 01:23:28 01:26:50 17° 92° (E) 01:30:11 437.125/150
Cosmos 2499 26 Jul 01:25:45 01:28:11 11° 55° (NE) 01:30:34 435.465 / 435.565
DX 1 26 Jul 01:26:38 01:29:07 15° 268° (W) 01:31:37 434.975-435.025
NANOSAT C BR1 26 Jul 01:28:17 01:32:02 30° 291° (WNW) 01:35:46 145.865
DUCHIFAT 1 26 Jul 01:33:23 01:37:03 28° 291° (WNW) 01:40:42 145.980
GONETS M04 26 Jul 01:35:38 01:42:25 24° 65° (ENE) 01:49:09
TISAT 1 26 Jul 01:42:32 01:46:40 61° 259° (W) 01:50:52 437.305
ITUPSAT 1 26 Jul 01:43:16 01:47:14 26° 66° (ENE) 01:51:13 437.325
UKube-1 26 Jul 01:43:58 01:45:43 12° 269° (W) 01:47:30 .
QB50P1 26 Jul 01:50:32 01:53:24 18° 295° (WNW) 01:56:16 145.935-145.965
BUGSAT 1 26 Jul 01:53:58 01:57:52 36° 289° (WNW) 02:01:47 437.445
POPSAT HIP 1 26 Jul 01:57:05 01:59:40 16° 296° (WNW) 02:02:14 437.405
AIST 1 26 Jul 02:10:24 02:13:27 19° 273° (W) 02:16:30
ISS 26 Jul 02:12:43 02:14:41 15° 8° (N) 02:16:37 145.825
JAS-2 26 Jul 02:29:10 02:33:57 36° 291° (WNW) 02:39:02 435.910
Gurwin Techsat 1B 26 Jul 02:30:48 02:35:36 33° 97° (E) 02:40:23 435.225
SWISSCUBE 26 Jul 02:36:14 02:41:03 83° 258° (WSW) 02:45:51 437.505
BEESAT 3 26 Jul 02:40:00 02:41:59 13° 41° (NE) 02:43:59 437.485
ITAMSAT 1 26 Jul 02:54:32 02:58:01 18° 92° (E) 03:01:28 435.822/435.867
BEESAT 26 Jul 02:57:56 03:02:38 56° 259° (W) 03:07:21 436.000
Oscar 19 26 Jul 03:01:26 03:06:30 57° 288° (WNW) 03:11:34 437.125/150
AO-7 26 Jul 03:04:48 03:08:39 14° 88° (E) 03:12:29 29.400- 29.500
Cosmos 2499 26 Jul 03:15:20 03:23:14 65° 79° (ENE) 03:30:30 435.465 / 435.565
ITUPSAT 1 26 Jul 03:20:34 03:24:55 34° 263° (W) 03:29:18 437.325
KKS-1 26 Jul 03:27:28 03:31:28 35° 70° (ENE) 03:35:31 437.445
GONETS M04 26 Jul 03:31:22 03:40:10 77° 265° (W) 03:48:58
ISS 26 Jul 03:48:44 03:51:48 37° 28° (NNE) 03:54:51 145.825
MOZHAYETS 4 26 Jul 03:51:08 03:55:43 65° 74° (ENE) 04:00:20
PCSat 26 Jul 03:59:40 04:04:03 24° 47° (NE) 04:08:24 145.827
CUSAT 1 26 Jul 04:01:53 04:06:10 51° 98° (E) 04:09:30 437.405
STARS 26 Jul 04:09:41 04:13:54 49° 72° (ENE) 04:18:10 437.465
DANDE 26 Jul 04:10:44 04:15:39 29° 96° (E) 04:19:35 436.750
Gurwin Techsat 1B 26 Jul 04:10:50 04:15:28 31° 293° (WNW) 04:20:06 435.225
BEESAT 3 26 Jul 04:16:12 04:20:10 76° 240° (WSW) 04:24:07 437.485
BEESAT 2 26 Jul 04:19:30 04:23:28 61° 56° (NE) 04:27:25 435.950
ITAMSAT 1 26 Jul 04:32:45 04:37:50 55° 289° (WNW) 04:42:52 435.822/435.867
HORYU 2 26 Jul 04:45:06 04:45:53 10° 89° (E) 04:46:40 437.375
AO-7 26 Jul 04:54:19 05:02:43 76° 106° (ESE) 05:11:02 29.400- 29.500
KKS-1 26 Jul 05:04:42 05:08:06 22° 266° (W) 05:11:34 437.445
RS-15 26 Jul 05:05:17 05:07:58 11° 92° (E) 05:10:42 29.354- 29.394
CUBESAT XI-V 26 Jul 05:07:00 05:11:27 49° 73° (ENE) 05:15:53 437.345
Cosmos 2499 26 Jul 05:09:45 05:15:29 23° 280° (W) 05:20:57 435.465 / 435.565
ISS 26 Jul 05:25:19 05:28:08 27° 225° (SW) 05:30:57 145.825
MOZHAYETS 4 26 Jul 05:31:19 05:33:19 13° 270° (W) 05:35:19
GONETS M04 26 Jul 05:31:20 05:35:23 14° 285° (WNW) 05:39:28
PCSat 26 Jul 05:42:29 05:47:48 56° 246° (WSW) 05:53:04 145.827
STARS 26 Jul 05:47:58 05:50:32 15° 268° (W) 05:53:07 437.465
DANDE 26 Jul 05:53:23 05:58:21 30° 283° (WNW) 06:02:16 436.750
BEESAT 2 26 Jul 05:59:20 06:00:46 12° 252° (WSW) 06:02:13 435.950
CUTE-I 26 Jul 06:03:45 06:06:11 13° 89° (E) 06:08:35 437.470
STRAND 1 26 Jul 06:06:38 06:09:44 16° 61° (ENE) 06:12:49 437.568
AIST 2 26 Jul 06:09:04 06:13:05 43° 52° (NE) 06:17:04 435.215
BRITE-PL 26 Jul 06:16:24 06:20:39 30° 97° (E) 06:25:11 437.365/2234.400
HORYU 2 26 Jul 06:18:27 06:22:56 73° 285° (WNW) 06:27:22 437.375
NOAA 15 26 Jul 06:26:27 06:31:00 29° 96° (E) 06:35:31 137.62
NOAA 18 26 Jul 06:27:39 06:31:57 23° 94° (E) 06:36:13 137.9125
O/OREOS (USA 219) 26 Jul 06:36:39 06:40:57 42° 63° (ENE) 06:45:17 437.305
CUBESAT XI-V 26 Jul 06:46:10 06:49:06 17° 268° (W) 06:52:01 437.345
AO-7 26 Jul 06:48:08 06:54:42 27° 306° (NW) 07:01:15 29.400- 29.500
LilacSat-2 26 Jul 07:00:48 07:04:33 45° 99° (E) 07:08:14 437.200
Cosmos 2491 26 Jul 07:06:02 07:09:13 12° 55° (NE) 07:12:22 435.465 / 435.565
RS-15 26 Jul 07:06:28 07:17:33 61° 113° (ESE) 07:29:15 29.354- 29.394
Cubesat XI-IV 26 Jul 07:17:21 07:22:42 65° 102° (ESE) 07:27:58 437.490
DOVE 4 26 Jul 07:24:15 07:28:53 33° 96° (E) 07:33:37 437.250
GOMX 1 26 Jul 07:24:39 07:29:40 68° 101° (ESE) 07:34:58 467.674
CUTE-I 26 Jul 07:41:26 07:46:48 77° 286° (WNW) 07:52:06 437.470
STRAND 1 26 Jul 07:43:12 07:48:20 68° 258° (WSW) 07:53:29 437.568
HO-68 26 Jul 07:45:31 07:50:17 18° 90° (E) 07:55:00 435.675
CINEMA 3 26 Jul 07:46:02 07:49:07 16° 90° (E) 07:52:12 145.822/145.860
AIST 2 26 Jul 07:48:23 07:51:15 18° 249° (WSW) 07:54:05 435.215
CANX-2 26 Jul 07:48:49 07:50:28 12° 90° (E) 07:52:08 2200.000
BRITE-PL 26 Jul 07:54:55 07:59:04 30° 290° (WNW) 08:03:30 437.365/2234.400
CUTE 1.7 + AOD 2 26 Jul 08:01:49 08:04:15 15° 91° (E) 08:06:40 437.475
NOAA 15 26 Jul 08:06:02 08:10:46 35° 292° (WNW) 08:15:32 137.62
NOAA 18 26 Jul 08:07:30 08:12:50 49° 291° (WNW) 08:18:08 137.9125
O/OREOS (USA 219) 26 Jul 08:16:52 08:20:01 19° 259° (W) 08:23:11 437.305
SO-50 26 Jul 08:22:52 08:27:28 43° 117° (ESE) 08:32:03 436.795
PRISM 26 Jul 08:34:14 08:38:13 55° 74° (ENE) 08:42:13 437.425
YUBILEINY 26 Jul 08:35:47 08:41:03 18° 77° (ENE) 08:46:20 435.215
LilacSat-2 26 Jul 08:36:29 08:38:27 14° 295° (WNW) 08:40:24 437.200
SEEDS 26 Jul 08:42:10 08:45:50 29° 96° (E) 08:49:30 437.485
UWE-3 26 Jul 08:43:00 08:44:13 11° 88° (E) 08:45:26 435.000/436.395/437.385
COMPASS 1 26 Jul 08:56:09 08:59:47 29° 96° (E) 09:03:24 437.405
Cubesat XI-IV 26 Jul 08:58:44 09:02:13 18° 299° (WNW) 09:05:41 437.490
Cosmos 2491 26 Jul 08:59:24 09:08:06 63° 78° (ENE) 09:16:46 435.465 / 435.565
CUBEBUG 2 26 Jul 09:00:22 09:04:21 26° 94° (E) 09:08:14 437.445
DOVE 4 26 Jul 09:02:00 09:06:28 31° 291° (WNW) 09:11:04 437.250
GOMX 1 26 Jul 09:04:17 09:07:16 16° 296° (WNW) 09:10:20 467.674
TIGRISAT 26 Jul 09:06:53 09:08:25 12° 60° (ENE) 09:09:58 435.000
RS-15 26 Jul 09:19:26 09:30:29 47° 318° (NW) 09:42:08 29.354- 29.394
UNISAT 6 26 Jul 09:21:12 09:24:12 17° 64° (ENE) 09:27:14 437.425
CINEMA 3 26 Jul 09:21:39 09:26:36 59° 286° (WNW) 09:31:30 145.822/145.860
CANX-2 26 Jul 09:22:33 09:26:42 56° 286° (WNW) 09:30:48 2200.000
CUTE-I 26 Jul 09:24:38 09:25:55 11° 304° (WNW) 09:27:12 437.470
AAUSAT CUBESAT 2 26 Jul 09:25:21 09:29:22 50° 100° (E) 09:33:21 437.432
Oscar 11 26 Jul 09:28:07 09:31:28 22° 94° (E) 09:34:48 145.826/435.025
HO-68 26 Jul 09:31:30 09:38:43 80° 288° (WNW) 09:45:54 435.675
CUTE 1.7 + AOD 2 26 Jul 09:36:18 09:40:20 45° 287° (WNW) 09:44:20 437.475
AUBIESAT-1 26 Jul 09:56:23 09:57:01 10° 93° (E) 09:57:40 437.475
ANTELSAT 26 Jul 09:58:09 10:02:26 39° 70° (ENE) 10:06:48 437.575/2403.000
DELFI C3 26 Jul 09:58:13 10:01:02 19° 94° (E) 10:03:50 145.870
SO-50 26 Jul 10:03:56 10:08:06 27° 314° (NW) 10:12:15 436.795
HUMSAT D 26 Jul 10:09:52 10:11:38 12° 90° (E) 10:13:23 437.325/437.525
PRISM 26 Jul 10:12:30 10:13:51 11° 269° (W) 10:15:14 437.425
UWE-3 26 Jul 10:16:35 10:21:12 72° 285° (WNW) 10:25:41 435.000/436.395/437.385
SEEDS 26 Jul 10:18:07 10:21:24 23° 292° (WNW) 10:24:39 437.485
FUNcube-1 26 Jul 10:19:20 10:23:51 75° 103° (ESE) 10:28:13 145.935
ZACube-1 26 Jul 10:19:38 10:24:11 81° 103° (ESE) 10:28:35 437.345
YUBILEINY 26 Jul 10:27:42 10:36:30 89° 96° (E) 10:45:24 435.215
COMPASS 1 26 Jul 10:31:58 10:35:11 22° 292° (WNW) 10:38:24 437.405
CUBEBUG 2 26 Jul 10:36:46 10:40:57 32° 291° (WNW) 10:45:03 437.445
TIGRISAT 26 Jul 10:39:46 10:44:23 82° 257° (WSW) 10:49:06 435.000
NANOSAT C BR1 26 Jul 10:45:33 10:48:28 18° 65° (ENE) 10:51:24 145.865
DUCHIFAT 1 26 Jul 10:50:15 10:53:16 19° 66° (ENE) 10:56:18 145.980
Cosmos 2504 26 Jul 10:55:18 11:03:42 50° 89° (E) 11:12:06 435.465 / 435.565
UNISAT 6 26 Jul 10:55:58 11:00:27 52° 260° (W) 11:05:04 437.425
Cosmos 2491 26 Jul 10:57:15 11:04:15 28° 278° (W) 11:11:18 435.465 / 435.565
JAS-2 26 Jul 10:59:45 11:02:18 13° 60° (ENE) 11:04:46 435.910
M-CUBED/EXP-1 PRIME 26 Jul 11:00:15 11:04:54 62° 106° (ESE) 11:09:34 437.505
AAUSAT CUBESAT 2 26 Jul 11:02:18 11:04:25 14° 296° (WNW) 11:06:32 437.432
Oscar 11 26 Jul 11:03:47 11:07:39 32° 290° (WNW) 11:11:29 145.826/435.025
QB50P1 26 Jul 11:06:22 11:10:07 32° 70° (ENE) 11:13:54 145.935-145.965
BUGSAT 1 26 Jul 11:10:12 11:12:17 14° 63° (ENE) 11:14:25 437.445
POPSAT HIP 1 26 Jul 11:12:33 11:16:25 36° 71° (ENE) 11:20:22 437.405
HO-68 26 Jul 11:21:10 11:25:20 17° 307° (NW) 11:29:30 435.675
AUBIESAT-1 26 Jul 11:27:18 11:31:58 85° 289° (WNW) 11:36:36 437.475
DELFI C3 26 Jul 11:32:27 11:35:56 31° 290° (WNW) 11:39:26 145.870
QB50P2 26 Jul 11:32:50 11:37:03 67° 75° (ENE) 11:41:19 145.880/145.840
AISAT 26 Jul 11:35:21 11:36:47 11° 90° (E) 11:38:12 437.250
POLYITAN 1 26 Jul 11:35:28 11:39:41 69° 75° (ENE) 11:43:58 437.675
ANTELSAT 26 Jul 11:35:44 11:39:16 21° 267° (W) 11:42:51 437.575/2403.000
RS-15 26 Jul 11:38:05 11:47:12 24° 351° (N) 11:56:35 29.354- 29.394
HUMSAT D 26 Jul 11:43:29 11:47:37 54° 286° (WNW) 11:51:38 437.325/437.525
FUNcube-1 26 Jul 11:57:52 11:59:25 12° 299° (WNW) 12:00:56 145.935
ZACube-1 26 Jul 11:58:35 11:59:45 11° 299° (WNW) 12:00:54 437.345
ESTCUBE 1 26 Jul 12:03:46 12:07:59 39° 98° (E) 12:12:10 437.505/2401.250
NANOSAT C BR1 26 Jul 12:19:56 12:23:54 39° 262° (W) 12:27:55 145.865
VELOX 1 26 Jul 12:24:42 12:28:51 37° 98° (E) 12:32:58 145.980
DUCHIFAT 1 26 Jul 12:24:46 12:28:41 37° 262° (W) 12:32:39 145.980
SPROUT 26 Jul 12:28:07 12:31:16 19° 93° (E) 12:34:23 437.525
CUBEBUG 1 26 Jul 12:28:25 12:32:41 48° 100° (E) 12:36:58 437.445
YUBILEINY 26 Jul 12:28:33 12:34:34 20° 298° (WNW) 12:40:39 435.215
M-CUBED/EXP-1 PRIME 26 Jul 12:35:58 12:38:56 17° 302° (WNW) 12:41:55 437.505
Oscar 19 26 Jul 12:40:12 12:44:22 26° 65° (ENE) 12:48:33 437.125/150
JAS-2 26 Jul 12:40:36 12:46:46 90° 163° (SSE) 12:52:19 435.910
QB50P1 26 Jul 12:42:38 12:45:55 22° 266° (W) 12:49:15 145.935-145.965
BUGSAT 1 26 Jul 12:43:15 12:47:13 51° 260° (W) 12:51:16 437.445
Cosmos 2504 26 Jul 12:49:10 12:57:15 38° 288° (WNW) 13:05:21 435.465 / 435.565
POPSAT HIP 1 26 Jul 12:49:17 12:52:19 19° 267° (W) 12:55:24 437.405
AIST 1 26 Jul 13:02:16 13:05:24 20° 88° (E) 13:08:33
AUBIESAT-1 26 Jul 13:04:21 13:05:40 11° 305° (NW) 13:07:00 437.475
AISAT 26 Jul 13:09:15 13:13:41 67° 286° (WNW) 13:18:06 437.250
50 SAT 26 Jul 13:10:27 13:13:57 50° 286° (WNW) 13:17:25 437.505
DX 1 26 Jul 13:12:19 13:16:44 89° 272° (W) 13:21:06 434.975-435.025
QB50P2 26 Jul 13:12:38 13:13:18 10° 271° (W) 13:13:58 145.880/145.840
POLYITAN 1 26 Jul 13:15:34 13:15:57 10° 271° (W) 13:16:20 437.675
TISAT 1 26 Jul 13:27:01 13:30:11 20° 94° (E) 13:33:19 437.305
UKube-1 26 Jul 13:27:51 13:32:11 77° 285° (WNW) 13:36:30 .
ESTCUBE 1 26 Jul 13:41:14 13:44:31 20° 294° (WNW) 13:47:48 437.505/2401.250
Gurwin Techsat 1B 26 Jul 13:51:47 13:56:57 54° 71° (ENE) 14:02:08 435.225
RS-15 26 Jul 13:54:49 14:05:16 30° 26° (NNE) 14:15:43 29.354- 29.394
AO-85 26 Jul 13:57:02 14:02:05 42° 116° (ESE) 14:06:59 145.980
VELOX 1 26 Jul 14:01:44 14:05:03 21° 294° (WNW) 14:08:23 145.980
AO-7 26 Jul 14:03:17 14:09:33 24° 53° (NE) 14:15:48 29.400- 29.500
SPROUT 26 Jul 14:03:20 14:07:19 36° 289° (WNW) 14:11:16 437.525
CUBEBUG 1 26 Jul 14:05:50 14:08:35 17° 296° (WNW) 14:11:21 437.445
ITAMSAT 1 26 Jul 14:12:12 14:16:39 29° 66° (ENE) 14:21:05 435.822/435.867
Oscar 19 26 Jul 14:18:44 14:23:29 39° 262° (W) 14:28:16 437.125/150
JAS-2 26 Jul 14:30:33 14:32:24 11° 270° (W) 14:34:12 435.910
CUSAT 1 26 Jul 14:33:58 14:36:23 22° 78° (ENE) 14:39:11 437.405
SWISSCUBE 26 Jul 14:36:55 14:40:49 24° 95° (E) 14:44:39 437.505
GONETS M04 26 Jul 14:37:58 14:44:40 26° 81° (E) 14:51:24
AIST 1 26 Jul 14:39:01 14:42:47 31° 284° (WNW) 14:46:35
BEESAT 26 Jul 14:58:02 15:02:26 36° 98° (E) 15:06:47 436.000
TISAT 1 26 Jul 15:02:02 15:05:54 35° 290° (WNW) 15:09:46 437.305
ITUPSAT 1 26 Jul 15:20:22 15:25:06 60° 102° (ESE) 15:29:47 437.325
Gurwin Techsat 1B 26 Jul 15:33:28 15:37:13 19° 268° (W) 15:40:58 435.225
AO-85 26 Jul 15:37:57 15:42:41 31° 312° (NW) 15:47:15 145.980
HORYU 2 26 Jul 15:43:17 15:44:41 11° 60° (ENE) 15:46:05 437.375
MOZHAYETS 4 26 Jul 15:47:31 15:50:08 15° 91° (E) 15:52:43
Cosmos 2499 26 Jul 15:49:53 15:58:28 56° 91° (E) 16:06:53 435.465 / 435.565
ITAMSAT 1 26 Jul 15:51:11 15:55:58 36° 263° (W) 16:00:47 435.822/435.867
AO-7 26 Jul 15:52:59 16:01:22 84° 252° (WSW) 16:09:49 29.400- 29.500
RS-15 26 Jul 16:07:52 16:20:17 75° 55° (NE) 16:32:32 29.354- 29.394
SWISSCUBE 26 Jul 16:14:20 16:18:39 35° 291° (WNW) 16:22:57 437.505
CUSAT 1 26 Jul 16:16:47 16:18:15 13° 265° (W) 16:19:50 437.405
DANDE 26 Jul 16:31:23 16:33:33 23° 265° (W) 16:35:52 436.750
GONETS M04 26 Jul 16:32:05 16:40:42 67° 281° (W) 16:49:24
BEESAT 26 Jul 16:36:11 16:40:01 25° 294° (WNW) 16:43:51 436.000
KKS-1 26 Jul 16:54:08 16:58:38 70° 102° (ESE) 17:03:07 437.445
SO-50 26 Jul 16:54:19 16:58:41 39° 50° (NE) 17:02:56 436.795
ITUPSAT 1 26 Jul 16:59:35 17:02:25 16° 298° (WNW) 17:05:15 437.325
Cubesat XI-IV 26 Jul 17:02:26 17:05:23 15° 59° (ENE) 17:08:19 437.490
PHONESAT 2.4 26 Jul 17:03:08 17:05:01 15° 151° (SSE) 17:06:55 2401.200-2431.200
CUBESAT XI-V 26 Jul 17:05:28 17:07:11 12° 89° (E) 17:08:53 437.345
HORYU 2 26 Jul 17:16:06 17:20:35 79° 257° (WSW) 17:25:07 437.375
MOZHAYETS 4 26 Jul 17:23:09 17:27:37 53° 287° (WNW) 17:32:02
CUTE-I 26 Jul 17:24:51 17:29:01 24° 64° (ENE) 17:33:13 437.470
BRITE-PL 26 Jul 17:28:20 17:31:56 29° 70° (ENE) 17:35:34 437.365/2234.400
STARS 26 Jul 17:34:56 17:39:24 85° 285° (WNW) 17:43:50 437.465
LilacSat-2 26 Jul 17:43:10 17:46:15 23° 69° (ENE) 17:49:23 437.200
Cosmos 2499 26 Jul 17:44:02 17:51:54 34° 289° (WNW) 17:59:38 435.465 / 435.565
NOAA 15 26 Jul 17:46:26 17:51:26 47° 70° (ENE) 17:56:26 137.62
AO-7 26 Jul 17:50:28 17:55:16 16° 271° (W) 18:00:05 29.400- 29.500
NOAA 18 26 Jul 17:53:37 17:58:49 44° 68° (ENE) 18:04:03 137.9125
BEESAT 3 26 Jul 18:08:00 18:10:31 17° 111° (ESE) 18:13:04 437.485
HO-68 26 Jul 18:16:03 18:20:03 16° 52° (NE) 18:24:02 435.675
RS-15 26 Jul 18:21:26 18:31:44 33° 256° (WSW) 18:41:55 29.354- 29.394
DOVE 4 26 Jul 18:30:27 18:34:06 28° 68° (ENE) 18:37:56 437.250
KKS-1 26 Jul 18:32:43 18:34:37 13° 299° (WNW) 18:36:31 437.445
GOMX 1 26 Jul 18:33:29 18:37:36 68° 76° (ENE) 18:41:54 467.674
SO-50 26 Jul 18:35:14 18:38:56 24° 248° (WSW) 18:42:34 436.795
GONETS M04 26 Jul 18:35:43 18:39:27 13° 304° (WNW) 18:43:12
PHONESAT 2.4 26 Jul 18:38:08 18:41:07 51° 166° (SSE) 18:44:08 2401.200-2431.200
Cubesat XI-IV 26 Jul 18:39:22 18:44:46 79° 257° (WSW) 18:50:11 437.490
CUBESAT XI-V 26 Jul 18:40:26 18:45:00 67° 286° (WNW) 18:49:35 437.345
PCSat 26 Jul 18:42:42 18:46:19 18° 105° (ESE) 18:49:56 145.827
CINEMA 3 26 Jul 18:48:31 18:50:55 14° 62° (ENE) 18:53:22 145.822/145.860
CUTE 1.7 + AOD 2 26 Jul 18:55:42 18:57:20 12° 63° (ENE) 18:58:58 437.475
